Total_Precipitation_Accumulation
0.38 0.36 0.46 0.68 0.79 0.77 0.77 0.84 1.11 1.13 1.06 1.01 0.98 0.97 0.91 0.92 0.92 0.84 0.78 0.77 0.81 0.87 0.89 0.88 0.88 0.96 1.03 1.12 1.26 1.43 1.60 1.61 1.49 1.34 1.23 1.16 1.08 0.99 0.95 0.96 0.97 1.06 1.11 1.11
0.29 0.26 0.34 0.51 0.60 0.62 0.59 0.60 0.70 0.80 0.82 0.71 0.67 0.68 0.68 0.69 0.65 0.61 0.57 0.54 0.53 0.53 0.52 0.51 0.49 0.51 0.55 0.67 0.86 1.11 1.39 1.42 1.27 1.13 1.00 0.95 0.97 0.96 0.95 0.92 0.96 0.99 0.94 0.96
0.43 0.34 0.36 0.60 0.60 0.53 0.53 0.45 0.49 0.60 0.61 0.53 0.55 0.62 0.63 0.67 0.68 0.53 0.42 0.40 0.41 0.41 0.39 0.37 0.37 0.37 0.42 0.51 0.66 0.85 0.98 1.00 0.95 0.90 0.89 0.94 0.99 0.95 0.93 0.93 0.94 0.96 0.92 0.91
0.47 0.49 0.74 0.91 0.75 0.62 0.58 0.39 0.35 0.40 0.42 0.43 0.54 0.57 0.57 0.54 0.53 0.51 0.39 0.30 0.29 0.31 0.32 0.37 0.37 0.41 0.46 0.53 0.59 0.65 0.69 0.73 0.72 0.73 0.78 0.86 0.90 0.90 0.97 0.99 0.92 0.92 0.97 0.97
0.60 0.70 0.84 0.84 0.70 0.70 0.70 0.55 0.34 0.37 0.36 0.31 0.32 0.34 0.35 0.34 0.31 0.30 0.26 0.23 0.20 0.21 0.22 0.26 0.27 0.29 0.30 0.32 0.35 0.37 0.39 0.42 0.47 0.52 0.55 0.60 0.64 0.73 0.88 0.96 0.97 0.98 1.02 1.01
0.66 0.78 0.90 0.70 0.42 0.43 0.60 0.76 0.33 0.29 0.29 0.22 0.20 0.29 0.29 0.27 0.27 0.23 0.20 0.22 0.22 0.19 0.19 0.21 0.23 0.26 0.24 0.24 0.26 0.27 0.27 0.30 0.34 0.38 0.41 0.44 0.52 0.59 0.69 0.75 0.84 0.94 0.94 0.94
0.61 0.81 0.95 0.67 0.44 0.42 0.74 0.79 0.30 0.24 0.22 0.20 0.20 0.20 0.20 0.22 0.23 0.21 0.19 0.20 0.22 0.22 0.21 0.21 0.25 0.27 0.27 0.27 0.28 0.32 0.33 0.34 0.36 0.37 0.39 0.44 0.49 0.55 0.60 0.67 0.78 0.85 0.87 0.88
0.71 1.05 1.17 0.83 0.61 0.63 0.60 0.32 0.22 0.18 0.17 0.18 0.18 0.16 0.16 0.19 0.20 0.19 0.18 0.18 0.20 0.22 0.23 0.24 0.25 0.26 0.27 0.27 0.30 0.34 0.36 0.38 0.39 0.40 0.43 0.46 0.51 0.57 0.61 0.67 0.71 0.76 0.80 0.82
0.68 0.93 0.86 0.71 0.58 0.46 0.38 0.29 0.20 0.17 0.17 0.19 0.20 0.19 0.21 0.21 0.19 0.19 0.19 0.18 0.18 0.21 0.20 0.21 0.22 0.23 0.25 0.29 0.32 0.35 0.38 0.39 0.41 0.42 0.44 0.44 0.49 0.56 0.61 0.64 0.67 0.71 0.75 0.81
0.43 0.47 0.42 0.39 0.36 0.29 0.25 0.24 0.20 0.19 0.21 0.23 0.25 0.23 0.22 0.22 0.22 0.20 0.20 0.18 0.17 0.20 0.22 0.22 0.23 0.25 0.29 0.31 0.30 0.31 0.38 0.40 0.41 0.42 0.43 0.46 0.48 0.54 0.58 0.62 0.65 0.70 0.77 0.80
0.37 0.32 0.28 0.26 0.26 0.24 0.19 0.17 0.17 0.19 0.22 0.24 0.25 0.25 0.22 0.22 0.24 0.23 0.20 0.20 0.23 0.26 0.27 0.28 0.28 0.31 0.36 0.38 0.34 0.32 0.34 0.37 0.38 0.39 0.43 0.46 0.48 0.50 0.53 0.58 0.70 0.79 0.82 0.85
0.38 0.27 0.29 0.29 0.25 0.19 0.18 0.16 0.15 0.16 0.17 0.19 0.21 0.24 0.24 0.22 0.23 0.25 0.25 0.26 0.28 0.30 0.32 0.32 0.31 0.33 0.36 0.40 0.41 0.39 0.39 0.37 0.36 0.38 0.42 0.45 0.47 0.47 0.51 0.54 0.65 0.72 0.73 0.73
0.24 0.21 0.20 0.20 0.20 0.18 0.17 0.17 0.17 0.18 0.17 0.18 0.19 0.22 0.25 0.24 0.22 0.23 0.26 0.27 0.29 0.32 0.33 0.30 0.30 0.29 0.29 0.34 0.37 0.38 0.39 0.41 0.40 0.41 0.41 0.45 0.46 0.46 0.50 0.52 0.54 0.60 0.64 0.66
0.15 0.16 0.19 0.18 0.17 0.16 0.17 0.19 0.18 0.16 0.16 0.18 0.19 0.21 0.22 0.22 0.20 0.21 0.25 0.29 0.31 0.31 0.31 0.31 0.30 0.30 0.29 0.30 0.36 0.39 0.39 0.42 0.45 0.45 0.46 0.48 0.53 0.57 0.58 0.61 0.62 0.57 0.56 0.58
0.14 0.15 0.17 0.18 0.18 0.17 0.18 0.20 0.22 0.19 0.19 0.20 0.21 0.23 0.22 0.22 0.23 0.24 0.25 0.28 0.30 0.31 0.33 0.35 0.32 0.31 0.32 0.33 0.34 0.35 0.39 0.43 0.47 0.53 0.56 0.54 0.56 0.62 0.64 0.58 0.55 0.55 0.55 0.57
0.17 0.17 0.18 0.21 0.24 0.22 0.21 0.22 0.24 0.23 0.21 0.21 0.24 0.28 0.29 0.28 0.26 0.25 0.25 0.27 0.30 0.33 0.35 0.37 0.36 0.36 0.35 0.34 0.34 0.35 0.38 0.47 0.50 0.53 0.56 0.55 0.55 0.60 0.62 0.61 0.61 0.63 0.64 0.68
0.21 0.23 0.24 0.27 0.28 0.27 0.25 0.27 0.27 0.27 0.26 0.25 0.27 0.29 0.30 0.30 0.29 0.29 0.28 0.29 0.31 0.33 0.35 0.39 0.39 0.39 0.39 0.38 0.39 0.41 0.41 0.43 0.48 0.51 0.54 0.56 0.56 0.61 0.63 0.64 0.67 0.70 0.69 0.74
0.22 0.23 0.24 0.28 0.31 0.31 0.28 0.28 0.28 0.28 0.28 0.29 0.31 0.32 0.34 0.35 0.37 0.36 0.34 0.32 0.32 0.37 0.42 0.45 0.44 0.41 0.39 0.39 0.42 0.44 0.43 0.44 0.46 0.52 0.55 0.58 0.61 0.65 0.71 0.70 0.70 0.74 0.74 0.76
0.25 0.25 0.25 0.27 0.30 0.33 0.32 0.31 0.31 0.31 0.31 0.30 0.31 0.34 0.35 0.34 0.34 0.34 0.34 0.35 0.36 0.41 0.43 0.44 0.47 0.40 0.37 0.41 0.48 0.50 0.52 0.53 0.55 0.56 0.58 0.61 0.64 0.67 0.73 0.73 0.74 0.77 0.80 0.78
0.27 0.26 0.25 0.26 0.27 0.31 0.35 0.34 0.33 0.33 0.34 0.33 0.32 0.32 0.31 0.29 0.30 0.32 0.34 0.38 0.40 0.41 0.39 0.43 0.42 0.41 0.42 0.45 0.50 0.51 0.56 0.61 0.67 0.69 0.71 0.71 0.72 0.76 0.79 0.77 0.77 0.81 0.84 0.85
0.24 0.23 0.24 0.25 0.27 0.30 0.34 0.36 0.35 0.32 0.32 0.31 0.31 0.32 0.32 0.30 0.28 0.30 0.36 0.43 0.43 0.39 0.35 0.41 0.38 0.38 0.44 0.51 0.56 0.55 0.58 0.63 0.67 0.72 0.74 0.75 0.77 0.79 0.82 0.81 0.80 0.83 0.86 0.86
0.24 0.22 0.21 0.22 0.23 0.28 0.31 0.32 0.30 0.27 0.27 0.29 0.30 0.32 0.33 0.35 0.33 0.35 0.39 0.44 0.47 0.49 0.42 0.39 0.37 0.45 0.56 0.61 0.53 0.54 0.58 0.63 0.67 0.72 0.75 0.79 0.82 0.82 0.84 0.88 0.88 0.87 0.89 0.92
0.28 0.26 0.24 0.25 0.26 0.28 0.31 0.34 0.31 0.29 0.29 0.28 0.29 0.33 0.39 0.44 0.45 0.46 0.48 0.45 0.44 0.52 0.49 0.46 0.49 0.59 0.68 0.59 0.52 0.54 0.56 0.60 0.62 0.66 0.73 0.83 0.87 0.87 0.89 0.90 0.90 0.90 0.92 0.97
0.31 0.29 0.26 0.27 0.28 0.33 0.38 0.39 0.37 0.34 0.33 0.35 0.34 0.34 0.35 0.41 0.45 0.46 0.47 0.52 0.55 0.55 0.50 0.54 0.60 0.65 0.66 0.56 0.56 0.58 0.60 0.60 0.61 0.63 0.68 0.74 0.77 0.81 0.87 0.92 0.96 0.97 0.95 0.95
0.31 0.29 0.29 0.30 0.35 0.40 0.41 0.41 0.41 0.39 0.39 0.42 0.42 0.38 0.35 0.37 0.44 0.46 0.43 0.46 0.57 0.61 0.55 0.61 0.68 0.69 0.61 0.57 0.59 0.61 0.64 0.67 0.71 0.72 0.71 0.72 0.74 0.80 0.87 0.91 0.97 1.03 1.04 1.03
0.34 0.33 0.35 0.39 0.43 0.42 0.43 0.46 0.45 0.43 0.42 0.43 0.42 0.38 0.36 0.36 0.38 0.40 0.41 0.43 0.50 0.62 0.64 0.65 0.64 0.65 0.63 0.65 0.67 0.68 0.69 0.70 0.73 0.74 0.71 0.73 0.77 0.82 0.90 0.96 0.98 1.03 1.06 1.05
0.37 0.38 0.39 0.39 0.38 0.40 0.43 0.48 0.49 0.47 0.46 0.47 0.47 0.42 0.41 0.42 0.43 0.45 0.46 0.50 0.55 0.60 0.68 0.74 0.72 0.73 0.74 0.72 0.73 0.74 0.74 0.75 0.77 0.79 0.77 0.79 0.81 0.83 0.89 0.95 1.00 1.05 1.09 1.10